Weather History for Dare County Gunnery Range, NC

Change the Weather History Date:

Friday, December 6, 2013

  Actual Average (KMQI) Record (KMQI)
Temperature  
Mean Temperature 69 °F -  
Max Temperature 76 °F 55 °F 75 °F (1998)
Min Temperature 62 °F 43 °F 29 °F (1969)
Cooling Degree Days 4    
Growing Degree Days 19 (Base 50)    
Moisture  
Dew Point 66 °F    
Average Humidity 85    
Maximum Humidity 97    
Minimum Humidity 70    
Precipitation  
Precipitation 0.00 in - - ()
Sea Level Pressure  
Sea Level Pressure 30.10 in    
Wind  
Wind Speed 14 mph (SW)    
Max Wind Speed 22 mph    
Max Gust Speed 34 mph    
Visibility 12 miles    
Events      
Averages and records for this station are not official NWS values.
T = Trace of Precipitation, MM = Missing Value Source: NWS Daily Summary

Daily Weather History Graph

Daily Weather History Graph

Search for Another Location

Airport:

Trip Planner

Search our weather history database for the weather conditions in past years. The results will help you decide how hot, cold, wet, or windy it might be!

Date:

Astronomy

Dec. 06, 2013 Rise Set
Actual Time 6:59 AM EST 4:50 PM EST
Civil Twilight 6:31 AM EST 5:18 PM EST
Nautical Twilight 5:59 AM EST 5:50 PM EST
Astronomical Twilight 5:28 AM EST 6:20 PM EST
Moon 10:07 AM EST (12/6) 9:13 PM EST (12/6)
Length of Visible Light 10h 47m
Length of Day
9h 50m
Waxing Crescent, 19% of the Moon is Illuminated
Dec 6
Waxing Crescent
Dec 9
First Quarter
Dec 17
Full
Dec 25
Last Quarter
Jan 1
New

Hourly Weather History & Observations

Time (EST) Temp. Dew Point Humidity Pressure Visibility Wind Dir Wind Speed Gust Speed Precip Events Conditions
12:56 AM 66.6 °F 64.8 °F 94% 30.10 in 12.0 mi SSW 12.7 mph - N/A   Clear
1:56 AM 67.3 °F 64.8 °F 92% 30.09 in 12.0 mi SSW 13.8 mph - N/A   Scattered Clouds
2:56 AM 65.8 °F 63.9 °F 93% 30.10 in 12.0 mi SSW 9.2 mph - N/A   Partly Cloudy
3:56 AM 66.4 °F 64.6 °F 94% 30.09 in 12.0 mi SSW 6.9 mph - N/A   Partly Cloudy
4:56 AM 67.1 °F 64.8 °F 92% 30.10 in 12.0 mi SSW 8.1 mph - N/A   Mostly Cloudy
5:56 AM 65.8 °F 63.7 °F 93% 30.10 in 12.0 mi South 5.8 mph - N/A   Partly Cloudy
6:56 AM 62.6 °F 61.9 °F 97% 30.12 in 12.0 mi South 9.2 mph - N/A   Mostly Cloudy
7:56 AM 67.3 °F 65.7 °F 95% 30.12 in 12.0 mi SW 13.8 mph 20.7 mph N/A   Clear
8:56 AM 71.6 °F 66.9 °F 85% 30.13 in 12.0 mi SW 16.1 mph 28.8 mph N/A   Scattered Clouds
9:01 AM 71.6 °F 68.0 °F 88% 30.14 in 12.0 mi WSW 17.3 mph 28.8 mph N/A   Mostly Cloudy
9:18 AM 71.6 °F 66.2 °F 83% 30.15 in 12.0 mi SW 17.3 mph 32.2 mph N/A   Scattered Clouds
9:56 AM 72.7 °F 66.9 °F 82% 30.15 in 12.0 mi SW 17.3 mph 28.8 mph N/A   Scattered Clouds
10:30 AM 73.4 °F 68.0 °F 83% 30.15 in 12.0 mi SW 16.1 mph 33.4 mph N/A   Mostly Cloudy
10:56 AM 73.9 °F 66.9 °F 79% 30.14 in 12.0 mi SW 19.6 mph 32.2 mph N/A   Mostly Cloudy
11:25 AM 75.2 °F 66.2 °F 73% 30.13 in 12.0 mi SW 20.7 mph 33.4 mph N/A   Mostly Cloudy
11:37 AM 75.2 °F 66.2 °F 73% 30.12 in 12.0 mi WSW 19.6 mph 34.5 mph N/A   Scattered Clouds
11:56 AM 74.8 °F 66.7 °F 76% 30.11 in 12.0 mi SW 21.9 mph 32.2 mph N/A   Partly Cloudy
12:56 PM 76.3 °F 66.7 °F 72% 30.08 in 12.0 mi SW 21.9 mph 31.1 mph N/A   Scattered Clouds
1:56 PM 76.5 °F 66.0 °F 70% 30.07 in 12.0 mi SW 21.9 mph 32.2 mph N/A   Partly Cloudy
2:56 PM 75.4 °F 65.5 °F 71% 30.05 in 12.0 mi SW 20.7 mph 29.9 mph N/A   Partly Cloudy
3:56 PM 73.2 °F 65.1 °F 76% 30.06 in 12.0 mi SSW 18.4 mph 26.5 mph N/A   Clear
4:56 PM 71.1 °F 64.8 °F 80% 30.07 in 12.0 mi SSW 13.8 mph 20.7 mph N/A   Clear
5:56 PM 68.7 °F 64.6 °F 87% 30.08 in 12.0 mi SSW 13.8 mph 19.6 mph N/A   Scattered Clouds
6:56 PM 69.1 °F 65.3 °F 88% 30.09 in 12.0 mi SSW 15.0 mph 20.7 mph N/A   Clear
7:56 PM 69.4 °F 65.8 °F 88% 30.09 in 12.0 mi SW 17.3 mph 24.2 mph N/A   Scattered Clouds
8:01 PM 69.8 °F 66.2 °F 88% 30.09 in 12.0 mi SW 17.3 mph 25.3 mph N/A   Mostly Cloudy
8:18 PM 69.8 °F 66.2 °F 88% 30.09 in 12.0 mi SW 15.0 mph 21.9 mph N/A   Scattered Clouds
8:56 PM 69.1 °F 65.8 °F 89% 30.09 in 12.0 mi SW 16.1 mph 21.9 mph N/A   Partly Cloudy
9:56 PM 68.5 °F 64.9 °F 88% 30.08 in 12.0 mi SSW 17.3 mph 28.8 mph N/A   Clear
10:56 PM 68.2 °F 64.4 °F 88% 30.08 in 12.0 mi SSW 18.4 mph 26.5 mph N/A   Clear
11:56 PM 68.9 °F 64.8 °F 87% 30.07 in 12.0 mi SSW 15.0 mph 24.2 mph N/A   Clear